When you browse on this site, cookies collect data to enhance your experience and personalize the content and advertising you see.
Visit our Privacy Policy to learn more. By continuing to use the site, you agree to this use of cookies and data.
  • In Spain
  • List of Countries
  • For 7 days
  • Water Temperature
  • Weather Map
  • Weather Widgets
  • user-avatar
    Login

    Hourly Weather Innsbruck

    Today, 29 March, Sunday

    Time Temperature Precipitation Wind Pressure Humidity
    00:00 -2°C° 0.1 mm 1 mps 592 mmHg 95%
    01:00 -2°C° 0 mm 1 mps 592 mmHg 94%
    02:00 -2°C° 0 mm 1 mps 592 mmHg 94%
    03:00 -3°C° 0 mm 1 mps 591 mmHg 94%
    04:00 -3°C° 0 mm 1 mps 591 mmHg 94%
    05:00 -3°C° 0 mm 1 mps 591 mmHg 93%
    06:00 -3°C° 0 mm 1 mps 591 mmHg 92%
    07:00 -2°C° 0 mm 1 mps 592 mmHg 92%
    08:00 -1°C° 0.1 mm 1 mps 592 mmHg 90%
    09:00 0°C° 0.1 mm 1 mps 593 mmHg 88%
    10:00 +1°C° 0.1 mm 1 mps 593 mmHg 86%
    11:00 +1°C° 0.2 mm 1 mps 593 mmHg 85%
    12:00 -1°C° 0.2 mm 2 mps 592 mmHg 85%
    13:00 -1°C° 0 mm 2 mps 592 mmHg 81%
    14:00 -1°C° 0.3 mm 2 mps 592 mmHg 85%
    15:00 -2°C° 0.3 mm 2 mps 592 mmHg 89%
    16:00 -2°C° 0.3 mm 2 mps 591 mmHg 93%
    17:00 -3°C° 0.4 mm 2 mps 591 mmHg 94%
    18:00 -4°C° 0.4 mm 2 mps 591 mmHg 96%
    19:00 -5°C° 0.4 mm 2 mps 591 mmHg 97%
    20:00 -5°C° 0.6 mm 2 mps 591 mmHg 97%
    21:00 -5°C° 0.6 mm 2 mps 591 mmHg 97%
    22:00 -6°C° 0.6 mm 2 mps 591 mmHg 96%
    23:00 -6°C° 0.5 mm 2 mps 591 mmHg 96%

    Tomorrow, 30 March, Monday

    Time Temperature Precipitation Wind Pressure Humidity
    00:00 -7°C° 0.5 mm 2 mps 591 mmHg 96%
    01:00 -7°C° 0.5 mm 2 mps 591 mmHg 96%
    02:00 -8°C° 0.6 mm 2 mps 591 mmHg 96%
    03:00 -8°C° 0.6 mm 2 mps 591 mmHg 96%
    04:00 -8°C° 0.6 mm 2 mps 591 mmHg 95%
    05:00 -8°C° 0.5 mm 2 mps 591 mmHg 95%
    06:00 -9°C° 0.5 mm 2 mps 591 mmHg 95%
    07:00 -9°C° 0.5 mm 2 mps 591 mmHg 94%
    08:00 -8°C° 0.3 mm 2 mps 592 mmHg 92%
    09:00 -8°C° 0.3 mm 2 mps 592 mmHg 90%
    10:00 -7°C° 0.3 mm 2 mps 592 mmHg 88%
    11:00 -7°C° 0.3 mm 2 mps 592 mmHg 88%
    12:00 -7°C° 0.3 mm 3 mps 592 mmHg 89%
    13:00 -7°C° 0.3 mm 3 mps 592 mmHg 89%
    14:00 -7°C° 0.4 mm 3 mps 592 mmHg 89%
    15:00 -7°C° 0.4 mm 3 mps 592 mmHg 90%
    16:00 -8°C° 0.4 mm 3 mps 592 mmHg 91%
    17:00 -9°C° 0.3 mm 3 mps 592 mmHg 92%
    18:00 -9°C° 0.3 mm 2 mps 591 mmHg 94%
    19:00 -10°C° 0.3 mm 2 mps 591 mmHg 95%
    20:00 -12°C° 0.1 mm 2 mps 591 mmHg 95%
    21:00 -13°C° 0.1 mm 2 mps 591 mmHg 96%
    22:00 -12°C° 0.1 mm 1 mps 591 mmHg 96%
    23:00 -13°C° 0 mm 1 mps 591 mmHg 95%

    Day after tomorrow, 31 March, Tuesday

    Time Temperature Precipitation Wind Pressure Humidity
    00:00 -13°C° 0 mm 1 mps 591 mmHg 94%
    01:00 -14°C° 0 mm 1 mps 591 mmHg 93%
    02:00 -14°C° 0 mm 1 mps 590 mmHg 88%
    03:00 -15°C° 0 mm 1 mps 590 mmHg 83%
    04:00 -15°C° 0 mm 1 mps 590 mmHg 78%
    05:00 -14°C° 0 mm 1 mps 590 mmHg 77%
    06:00 -14°C° 0 mm 1 mps 591 mmHg 75%
    07:00 -13°C° 0 mm 1 mps 591 mmHg 73%
    08:00 -11°C° 0 mm 1 mps 592 mmHg 70%
    09:00 -10°C° 0 mm 2 mps 593 mmHg 67%
    10:00 -8°C° 0 mm 2 mps 594 mmHg 64%
    11:00 -7°C° 0 mm 2 mps 594 mmHg 65%
    12:00 -6°C° 0 mm 2 mps 594 mmHg 66%
    13:00 -6°C° 0 mm 2 mps 594 mmHg 68%
    14:00 -6°C° 0 mm 2 mps 594 mmHg 69%
    15:00 -6°C° 0 mm 2 mps 594 mmHg 71%
    16:00 -6°C° 0 mm 2 mps 594 mmHg 72%
    17:00 -8°C° 0 mm 2 mps 593 mmHg 79%
    18:00 -10°C° 0 mm 2 mps 593 mmHg 85%
    19:00 -11°C° 0 mm 1 mps 592 mmHg 92%
    20:00 -11°C° 0 mm 1 mps 592 mmHg 90%
    21:00 -12°C° 0 mm 1 mps 593 mmHg 87%
    22:00 -12°C° 0 mm 1 mps 593 mmHg 85%
    23:00 -12°C° 0 mm 1 mps 592 mmHg 79%

    1 April, Wednesday

    Time Temperature Precipitation Wind Pressure Humidity
    00:00 -12°C° 0 mm 1 mps 592 mmHg 73%
    01:00 -12°C° 0 mm 1 mps 592 mmHg 66%
    02:00 -12°C° 0 mm 1 mps 592 mmHg 63%
    03:00 -12°C° 0 mm 1 mps 591 mmHg 60%
    04:00 -12°C° 0 mm 1 mps 591 mmHg 56%
    05:00 -12°C° 0 mm 1 mps 591 mmHg 55%
    06:00 -11°C° 0 mm 1 mps 592 mmHg 55%
    07:00 -10°C° 0 mm 1 mps 592 mmHg 54%
    08:00 -7°C° 0 mm 1 mps 593 mmHg 51%
    09:00 -4°C° 0 mm 1 mps 594 mmHg 49%
    10:00 -1°C° 0 mm 1 mps 595 mmHg 46%
    11:00 0°C° 0 mm 1 mps 595 mmHg 49%
    12:00 0°C° 0 mm 1 mps 595 mmHg 52%
    13:00 +1°C° 0 mm 1 mps 595 mmHg 55%
    14:00 +1°C° 0 mm 1 mps 594 mmHg 58%
    15:00 +1°C° 0 mm 1 mps 594 mmHg 61%
    16:00 +1°C° 0 mm 1 mps 593 mmHg 64%
    17:00 -2°C° 0 mm 1 mps 592 mmHg 72%
    18:00 -4°C° 0 mm 1 mps 591 mmHg 81%
    19:00 -7°C° 0 mm 0 mps 590 mmHg 90%
    20:00 -7°C° 0 mm 0 mps 591 mmHg 88%
    21:00 -7°C° 0 mm 1 mps 591 mmHg 86%
    22:00 -8°C° 0 mm 1 mps 591 mmHg 85%
    23:00 -8°C° 0 mm 1 mps 591 mmHg 83%

    2 April, Thursday

    Time Temperature Precipitation Wind Pressure Humidity
    00:00 -8°C° 0 mm 1 mps 590 mmHg 82%
    01:00 -8°C° 0 mm 1 mps 590 mmHg 80%
    02:00 -8°C° 0 mm 1 mps 590 mmHg 79%
    03:00 -8°C° 0 mm 1 mps 589 mmHg 77%
    04:00 -8°C° 0 mm 1 mps 589 mmHg 76%
    05:00 -8°C° 0 mm 1 mps 589 mmHg 74%
    06:00 -7°C° 0 mm 1 mps 589 mmHg 73%
    07:00 -7°C° 0 mm 1 mps 590 mmHg 71%
    08:00 -4°C° 0 mm 1 mps 590 mmHg 67%
    09:00 -2°C° 0 mm 1 mps 591 mmHg 63%
    10:00 +1°C° 0 mm 1 mps 592 mmHg 58%
    11:00 +1°C° 0 mm 1 mps 592 mmHg 57%
    12:00 +2°C° 0 mm 1 mps 592 mmHg 57%
    13:00 +3°C° 0 mm 1 mps 592 mmHg 56%
    14:00 +3°C° 0 mm 1 mps 591 mmHg 58%
    15:00 +2°C° 0 mm 1 mps 591 mmHg 60%
    16:00 +2°C° 0 mm 1 mps 590 mmHg 63%
    17:00 0°C° 0 mm 1 mps 590 mmHg 72%
    18:00 -2°C° 0 mm 1 mps 589 mmHg 81%
    19:00 -4°C° 0 mm 1 mps 588 mmHg 91%
    20:00 -4°C° 0 mm 1 mps 588 mmHg 91%
    21:00 -4°C° 0 mm 1 mps 589 mmHg 92%
    22:00 -4°C° 0 mm 1 mps 589 mmHg 93%
    23:00 -6°C° 0 mm 1 mps 589 mmHg 93%

    3 April, Friday

    Time Temperature Precipitation Wind Pressure Humidity
    00:00 -6°C° 0 mm 1 mps 588 mmHg 93%
    01:00 -6°C° 0 mm 1 mps 588 mmHg 92%
    02:00 -7°C° 0 mm 1 mps 588 mmHg 92%
    03:00 -7°C° 0 mm 1 mps 588 mmHg 92%
    04:00 -7°C° 0 mm 1 mps 588 mmHg 91%
    05:00 -6°C° 0 mm 1 mps 588 mmHg 90%
    06:00 -6°C° 0 mm 1 mps 589 mmHg 89%
    07:00 -4°C° 0 mm 1 mps 589 mmHg 88%
    08:00 -3°C° 0 mm 1 mps 590 mmHg 84%
    09:00 -2°C° 0 mm 1 mps 590 mmHg 80%
    10:00 -1°C° 0 mm 1 mps 591 mmHg 76%
    11:00 -2°C° 0.1 mm 2 mps 591 mmHg 74%
    12:00 -2°C° 0.1 mm 2 mps 591 mmHg 72%
    13:00 -1°C° 0.1 mm 2 mps 591 mmHg 69%
    14:00 -1°C° 0.1 mm 2 mps 591 mmHg 71%
    15:00 -1°C° 0.1 mm 2 mps 591 mmHg 73%
    16:00 -2°C° 0.1 mm 2 mps 591 mmHg 75%
    17:00 -3°C° 0.1 mm 2 mps 591 mmHg 81%
    18:00 -4°C° 0.1 mm 2 mps 591 mmHg 87%
    19:00 -6°C° 0.1 mm 2 mps 591 mmHg 93%
    20:00 -4°C° 0.1 mm 1 mps 591 mmHg 94%
    21:00 -4°C° 0.1 mm 1 mps 592 mmHg 95%
    22:00 -6°C° 0.1 mm 1 mps 592 mmHg 96%
    23:00 -6°C° 0 mm 1 mps 593 mmHg 96%
    Show more